EZY21VB LIMC-EGKK

Flight info

Callsign EZY21VB
Flight time 1h 22m
Altitude 36000
Route AOSTA DCT ORSUD DCT MOLUS DCT IBODI DCT GOTED DCT TRO DCT CLM DCT KOPOR DCT KESAX DCT KUNAV
Aircraft A320/M-SDE3FGHIRWY/LB1

Departure

Time 2026-05-06 09:46
Airport Milan Malpensa International Airport (LIMC)

Arrival

Time 2026-05-06 11:08
Airport London Gatwick Airport (EGKK)
Time Latitude Longitude Altitude Speed Heading
2026-05-06 09:15 45.64738 8.72141 749 ft 0 kts 38°
2026-05-06 09:33 45.64723 8.72123 727 ft 3 kts 44°
2026-05-06 09:33 45.64709 8.72100 757 ft 3 kts 59°
2026-05-06 09:34 45.64702 8.72075 747 ft 3 kts 103°
2026-05-06 09:34 45.64706 8.72063 747 ft 1 kts 171°
2026-05-06 09:36 45.64705 8.72063 747 ft 1 kts 171°
2026-05-06 09:36 45.64632 8.72082 749 ft 18 kts 169°
2026-05-06 09:37 45.64502 8.72118 750 ft 20 kts 169°
2026-05-06 09:37 45.64422 8.72242 752 ft 18 kts 84°
2026-05-06 09:37 45.64441 8.72399 752 ft 15 kts 101°
2026-05-06 09:37 45.64316 8.72454 752 ft 26 kts 168°
2026-05-06 09:38 45.64139 8.72506 752 ft 26 kts 168°
2026-05-06 09:38 45.63959 8.72564 752 ft 27 kts 168°
2026-05-06 09:38 45.63775 8.72615 752 ft 27 kts 169°
2026-05-06 09:38 45.63587 8.72668 752 ft 29 kts 169°
2026-05-06 09:39 45.63387 8.72722 752 ft 29 kts 169°
2026-05-06 09:39 45.63187 8.72777 750 ft 29 kts 169°
2026-05-06 09:39 45.62986 8.72834 751 ft 29 kts 169°
2026-05-06 09:39 45.62788 8.72887 752 ft 29 kts 169°
2026-05-06 09:40 45.62592 8.72941 751 ft 29 kts 169°
2026-05-06 09:40 45.62409 8.72991 751 ft 25 kts 168°
2026-05-06 09:40 45.62050 8.73089 753 ft 27 kts 169°
2026-05-06 09:41 45.61880 8.73135 751 ft 23 kts 169°
2026-05-06 09:41 45.61747 8.73198 751 ft 18 kts 135°
2026-05-06 09:41 45.61697 8.73298 752 ft 0 kts 124°
2026-05-06 09:41 45.61690 8.73313 753 ft 6 kts 124°
2026-05-06 09:42 45.61658 8.73378 751 ft 4 kts 124°
2026-05-06 09:42 45.61637 8.73424 750 ft 7 kts 124°
2026-05-06 09:42 45.61632 8.73435 750 ft 0 kts 124°
2026-05-06 09:43 45.61630 8.73438 750 ft 3 kts 124°
2026-05-06 09:44 45.61589 8.73539 752 ft 18 kts 109°
2026-05-06 09:44 45.61613 8.73723 742 ft 17 kts 41°
2026-05-06 09:44 45.61657 8.73728 743 ft 0 kts 350°
2026-05-06 09:45 45.61717 8.73713 742 ft 35 kts 349°
2026-05-06 09:45 45.62220 8.73571 745 ft 108 kts 349°
2026-05-06 09:45 45.63153 8.73313 745 ft 163 kts 349°
2026-05-06 09:45 45.64328 8.72992 1188 ft 170 kts 355°
2026-05-06 09:46 45.65487 8.72713 1840 ft 174 kts 355°
2026-05-06 09:46 45.66754 8.72620 2256 ft 193 kts
2026-05-06 09:46 45.68178 8.72641 2651 ft 217 kts
2026-05-06 09:46 45.69778 8.72648 3086 ft 240 kts
2026-05-06 09:47 45.71477 8.72557 3726 ft 250 kts 349°
2026-05-06 09:47 45.73001 8.71387 4441 ft 253 kts 308°
2026-05-06 09:47 45.73730 8.69186 5251 ft 244 kts 271°
2026-05-06 09:47 45.73501 8.66860 6034 ft 234 kts 243°
2026-05-06 09:48 45.72851 8.64726 6850 ft 236 kts 243°
2026-05-06 09:48 45.72187 8.62543 7494 ft 242 kts 243°
2026-05-06 09:48 45.71500 8.60328 8266 ft 244 kts 239°
2026-05-06 09:48 45.70597 8.58165 8680 ft 265 kts 236°
2026-05-06 09:49 45.69587 8.55864 9213 ft 278 kts 235°
2026-05-06 09:49 45.68543 8.53503 9997 ft 283 kts 235°
2026-05-06 09:49 45.67446 8.51031 10304 ft 306 kts 235°
2026-05-06 09:49 45.66262 8.48382 10673 ft 323 kts 236°
2026-05-06 09:50 45.65046 8.45661 11622 ft 324 kts 236°
2026-05-06 09:50 45.63831 8.42934 12540 ft 326 kts 236°
2026-05-06 09:50 45.62565 8.40231 13296 ft 328 kts 230°
2026-05-06 09:50 45.61098 8.37717 13993 ft 331 kts 228°
2026-05-06 09:51 45.59702 8.35097 14660 ft 335 kts 237°
2026-05-06 09:51 45.58796 8.32003 15318 ft 342 kts 253°
2026-05-06 09:51 45.58535 8.28592 15987 ft 351 kts 269°
2026-05-06 09:51 45.58975 8.25124 16610 ft 361 kts 283°
2026-05-06 09:52 45.59770 8.21702 17260 ft 365 kts 284°
2026-05-06 09:52 45.60578 8.18241 17837 ft 370 kts 285°
2026-05-06 09:52 45.61395 8.14737 18379 ft 374 kts 284°
2026-05-06 09:52 45.62218 8.11201 18959 ft 376 kts 284°
2026-05-06 09:53 45.63041 8.07658 19603 ft 377 kts 284°
2026-05-06 09:53 45.63867 8.04095 20340 ft 378 kts 283°
2026-05-06 09:53 45.64693 8.00516 21045 ft 380 kts 283°
2026-05-06 09:53 45.65519 7.96923 21660 ft 381 kts 282°
2026-05-06 09:54 45.66345 7.93326 22238 ft 381 kts 282°
2026-05-06 09:54 45.67175 7.89714 22869 ft 383 kts 282°
2026-05-06 09:54 45.68005 7.86091 23479 ft 384 kts 282°
2026-05-06 09:54 45.68828 7.82494 24018 ft 387 kts 282°
2026-05-06 09:55 45.69676 7.78762 24433 ft 391 kts 282°
2026-05-06 09:55 45.70515 7.75062 24852 ft 393 kts 281°
2026-05-06 09:55 45.71363 7.71321 25224 ft 398 kts 282°
2026-05-06 09:55 45.72225 7.67504 25427 ft 407 kts 282°
2026-05-06 09:56 45.73089 7.63678 25770 ft 411 kts 282°
2026-05-06 09:56 45.73972 7.59780 26193 ft 413 kts 282°
2026-05-06 09:56 45.74859 7.55869 26603 ft 414 kts 282°
2026-05-06 09:56 45.75748 7.51935 27053 ft 416 kts 281°
2026-05-06 09:57 45.76637 7.47988 27487 ft 417 kts 281°
2026-05-06 09:57 45.77530 7.44022 27913 ft 419 kts 281°
2026-05-06 09:57 45.78470 7.40057 28293 ft 425 kts 285°
2026-05-06 09:57 45.79855 7.36259 28690 ft 437 kts 296°
2026-05-06 09:58 45.81093 7.33887 28933 ft 445 kts 303°
2026-05-06 09:58 45.84203 7.29899 29380 ft 463 kts 318°
2026-05-06 09:58 45.85991 7.28106 29585 ft 465 kts 318°
2026-05-06 09:58 45.88644 7.25436 29917 ft 467 kts 317°
2026-05-06 09:59 45.91265 7.22779 30203 ft 469 kts 317°
2026-05-06 09:59 45.93930 7.20065 30480 ft 470 kts 317°
2026-05-06 09:59 45.96603 7.17333 30732 ft 472 kts 317°
2026-05-06 09:59 45.99281 7.14591 30956 ft 474 kts 317°
2026-05-06 10:00 46.01972 7.11831 31231 ft 475 kts 317°
2026-05-06 10:00 46.04662 7.09075 31554 ft 474 kts 317°
2026-05-06 10:00 46.08254 7.05389 32030 ft 473 kts 317°
2026-05-06 10:00 46.10028 7.03566 32255 ft 473 kts 317°
2026-05-06 10:01 46.12699 7.00818 32616 ft 472 kts 317°
2026-05-06 10:01 46.15370 6.98064 32999 ft 471 kts 318°
2026-05-06 10:01 46.18034 6.95317 33384 ft 471 kts 317°
2026-05-06 10:01 46.20703 6.92561 33698 ft 472 kts 317°
2026-05-06 10:02 46.23368 6.89801 33991 ft 471 kts 317°
2026-05-06 10:02 46.26034 6.87039 34283 ft 471 kts 318°
2026-05-06 10:02 46.28694 6.84283 34556 ft 471 kts 318°
2026-05-06 10:02 46.31355 6.81527 34852 ft 470 kts 318°
2026-05-06 10:03 46.34008 6.78778 35155 ft 468 kts 319°
2026-05-06 10:03 46.36652 6.76034 35395 ft 467 kts 319°
2026-05-06 10:03 46.39289 6.73289 35660 ft 466 kts 319°
2026-05-06 10:03 46.41918 6.70544 35826 ft 466 kts 319°
2026-05-06 10:04 46.46709 6.64462 35866 ft 453 kts 308°
2026-05-06 10:04 46.51058 6.57857 35865 ft 452 kts 308°
2026-05-06 10:05 46.55416 6.51270 35862 ft 452 kts 308°
2026-05-06 10:05 46.59772 6.44673 35871 ft 453 kts 309°
2026-05-06 10:06 46.64125 6.38048 35859 ft 453 kts 308°
2026-05-06 10:06 46.68473 6.31416 35873 ft 453 kts 308°
2026-05-06 10:07 46.72816 6.24773 35877 ft 453 kts 308°
2026-05-06 10:07 46.77154 6.18121 35882 ft 453 kts 308°
2026-05-06 10:08 46.81489 6.11455 35900 ft 453 kts 309°
2026-05-06 10:08 46.85814 6.04782 35895 ft 452 kts 309°
2026-05-06 10:09 46.90141 5.98105 35880 ft 452 kts 309°
2026-05-06 10:09 46.94535 5.91521 35876 ft 455 kts 315°
2026-05-06 10:10 46.99913 5.86505 35871 ft 462 kts 328°
2026-05-06 10:10 47.05573 5.82169 35873 ft 462 kts 329°
2026-05-06 10:11 47.11310 5.77759 35874 ft 463 kts 329°
2026-05-06 10:11 47.16966 5.73392 35892 ft 462 kts 329°
2026-05-06 10:12 47.22647 5.69001 35887 ft 461 kts 329°
2026-05-06 10:12 47.28316 5.64602 35886 ft 460 kts 329°
2026-05-06 10:13 47.33973 5.60199 35874 ft 459 kts 329°
2026-05-06 10:13 47.39617 5.55787 35870 ft 459 kts 329°
2026-05-06 10:14 47.45256 5.51372 35869 ft 459 kts 329°
2026-05-06 10:14 47.50792 5.46723 35857 ft 455 kts 320°
2026-05-06 10:15 47.55247 5.40233 35872 ft 447 kts 303°
2026-05-06 10:15 47.58928 5.32815 35857 ft 447 kts 303°
2026-05-06 10:16 47.62615 5.25391 35841 ft 447 kts 303°
2026-05-06 10:16 47.66301 5.17959 35845 ft 447 kts 303°
2026-05-06 10:17 47.69975 5.10508 35836 ft 447 kts 303°
2026-05-06 10:17 47.73650 5.03048 35839 ft 448 kts 304°
2026-05-06 10:18 47.77324 4.95567 35832 ft 448 kts 304°
2026-05-06 10:18 47.80996 4.88078 35831 ft 448 kts 304°
2026-05-06 10:19 47.84668 4.80569 35827 ft 449 kts 304°
2026-05-06 10:19 47.88328 4.73044 35836 ft 449 kts 303°
2026-05-06 10:20 47.91957 4.65553 35855 ft 449 kts 304°
2026-05-06 10:20 47.95635 4.57953 35844 ft 449 kts 304°
2026-05-06 10:21 47.99265 4.50442 35837 ft 449 kts 304°
2026-05-06 10:21 48.02920 4.42872 35837 ft 449 kts 303°
2026-05-06 10:22 48.06565 4.35289 35844 ft 449 kts 303°
2026-05-06 10:22 48.10204 4.27696 35847 ft 449 kts 303°
2026-05-06 10:23 48.13841 4.20088 35863 ft 449 kts 303°
2026-05-06 10:23 48.17467 4.12471 35876 ft 449 kts 304°
2026-05-06 10:24 48.21087 4.04856 35871 ft 448 kts 303°
2026-05-06 10:24 48.24705 3.97246 35871 ft 448 kts 306°
2026-05-06 10:25 48.28927 3.90329 35870 ft 450 kts 312°
2026-05-06 10:25 48.33247 3.83539 35869 ft 449 kts 312°
2026-05-06 10:26 48.37559 3.76736 35869 ft 449 kts 312°
2026-05-06 10:26 48.41863 3.69907 35874 ft 450 kts 312°
2026-05-06 10:27 48.46166 3.63073 35875 ft 450 kts 312°
2026-05-06 10:27 48.50462 3.56225 35880 ft 449 kts 312°
2026-05-06 10:28 48.54752 3.49366 35884 ft 449 kts 312°
2026-05-06 10:28 48.59015 3.42548 35885 ft 449 kts 311°
2026-05-06 10:29 48.63297 3.35679 35889 ft 449 kts 312°
2026-05-06 10:29 48.67566 3.28802 35891 ft 448 kts 311°
2026-05-06 10:30 48.71830 3.21911 35887 ft 448 kts 311°
2026-05-06 10:30 48.76091 3.15017 35888 ft 448 kts 311°
2026-05-06 10:31 48.80346 3.08109 35888 ft 448 kts 311°
2026-05-06 10:31 48.84778 3.01466 35897 ft 450 kts 321°
2026-05-06 10:32 48.90103 2.96489 35910 ft 449 kts 329°
2026-05-06 10:32 48.95518 2.91761 35910 ft 448 kts 329°
2026-05-06 10:33 49.00924 2.87016 35906 ft 449 kts 328°
2026-05-06 10:33 49.06320 2.82255 35909 ft 448 kts 329°
2026-05-06 10:34 49.11719 2.77500 35920 ft 448 kts 328°
2026-05-06 10:34 49.17122 2.72746 35915 ft 448 kts 328°
2026-05-06 10:35 49.22515 2.67970 35902 ft 448 kts 328°
2026-05-06 10:35 49.27903 2.63169 35901 ft 448 kts 329°
2026-05-06 10:36 49.33281 2.58377 35897 ft 449 kts 329°
2026-05-06 10:36 49.38679 2.53566 35904 ft 449 kts 329°
2026-05-06 10:37 49.44078 2.48749 35909 ft 449 kts 329°
2026-05-06 10:37 49.49478 2.43903 35919 ft 449 kts 329°
2026-05-06 10:38 49.54451 2.38164 35919 ft 447 kts 319°
2026-05-06 10:38 49.59165 2.31903 35916 ft 448 kts 318°
2026-05-06 10:39 49.63880 2.25624 35917 ft 448 kts 318°
2026-05-06 10:39 49.68594 2.19360 35931 ft 447 kts 319°
2026-05-06 10:40 49.73291 2.13087 35935 ft 445 kts 319°
2026-05-06 10:40 49.77970 2.06823 35938 ft 445 kts 318°
2026-05-06 10:41 49.82636 2.00538 35617 ft 443 kts 318°
2026-05-06 10:41 49.84958 1.97405 35379 ft 442 kts 318°
2026-05-06 10:41 49.87277 1.94275 35132 ft 442 kts 319°
2026-05-06 10:42 49.89593 1.91147 34891 ft 441 kts 319°
2026-05-06 10:42 49.91899 1.88028 34580 ft 438 kts 319°
2026-05-06 10:42 49.94192 1.84924 34021 ft 437 kts 319°
2026-05-06 10:42 49.95705 1.82874 33599 ft 435 kts 319°
2026-05-06 10:43 49.98704 1.78813 32894 ft 429 kts 319°
2026-05-06 10:43 50.00939 1.75782 32348 ft 424 kts 319°
2026-05-06 10:43 50.03152 1.72776 31807 ft 421 kts 319°
2026-05-06 10:44 50.07524 1.66821 30769 ft 414 kts 319°
2026-05-06 10:44 50.09690 1.63879 30255 ft 412 kts 319°
2026-05-06 10:44 50.11845 1.60962 29693 ft 410 kts 319°
2026-05-06 10:44 50.13315 1.58975 29344 ft 421 kts 320°
2026-05-06 10:45 50.15546 1.55957 28815 ft 436 kts 319°
2026-05-06 10:45 50.17869 1.52805 28280 ft 437 kts 319°
2026-05-06 10:45 50.20124 1.49741 27761 ft 434 kts 319°
2026-05-06 10:45 50.22392 1.46649 27261 ft 431 kts 319°
2026-05-06 10:46 50.24635 1.43578 26762 ft 427 kts 318°
2026-05-06 10:46 50.26858 1.40523 26272 ft 424 kts 318°
2026-05-06 10:46 50.29062 1.37495 25786 ft 420 kts 318°
2026-05-06 10:46 50.31247 1.34493 25283 ft 415 kts 318°
2026-05-06 10:47 50.33410 1.31527 24789 ft 412 kts 318°
2026-05-06 10:47 50.35556 1.28591 24277 ft 408 kts 318°
2026-05-06 10:47 50.37682 1.25679 23768 ft 405 kts 318°
2026-05-06 10:47 50.39757 1.22827 23205 ft 401 kts 318°
2026-05-06 10:48 50.41839 1.19955 22686 ft 397 kts 317°
2026-05-06 10:48 50.43900 1.17107 22169 ft 393 kts 318°
2026-05-06 10:48 50.45944 1.14276 21661 ft 391 kts 317°
2026-05-06 10:48 50.47975 1.11460 21155 ft 388 kts 317°
2026-05-06 10:49 50.49988 1.08666 20663 ft 385 kts 318°
2026-05-06 10:49 50.51947 1.05822 20167 ft 382 kts 313°
2026-05-06 10:49 50.53748 1.02783 19678 ft 379 kts 313°
2026-05-06 10:49 50.55537 0.99762 19192 ft 376 kts 313°
2026-05-06 10:50 50.57310 0.96768 18711 ft 372 kts 314°
2026-05-06 10:50 50.59071 0.93797 18233 ft 370 kts 314°
2026-05-06 10:50 50.60819 0.90852 17724 ft 366 kts 313°
2026-05-06 10:50 50.62535 0.87950 17442 ft 356 kts 313°
2026-05-06 10:51 50.64199 0.85130 17140 ft 348 kts 313°
2026-05-06 10:51 50.65838 0.82349 16703 ft 344 kts 312°
2026-05-06 10:51 50.67460 0.79591 16247 ft 342 kts 311°
2026-05-06 10:51 50.69020 0.76766 15731 ft 342 kts 309°
2026-05-06 10:52 50.70512 0.73887 15057 ft 336 kts 308°
2026-05-06 10:52 50.71956 0.71007 14394 ft 335 kts 307°
2026-05-06 10:52 50.73382 0.68131 13969 ft 332 kts 307°
2026-05-06 10:52 50.74823 0.65237 13442 ft 333 kts 308°
2026-05-06 10:53 50.76248 0.62398 13039 ft 328 kts 308°
2026-05-06 10:53 50.77671 0.59582 12516 ft 328 kts 308°
2026-05-06 10:53 50.79093 0.56774 12031 ft 326 kts 309°
2026-05-06 10:53 50.80503 0.53994 11584 ft 323 kts 309°
2026-05-06 10:54 50.81884 0.51269 11426 ft 311 kts 309°
2026-05-06 10:54 50.83210 0.48651 11299 ft 299 kts 309°
2026-05-06 10:54 50.84470 0.46165 11008 ft 287 kts 310°
2026-05-06 10:54 50.85720 0.43701 10398 ft 282 kts 310°
2026-05-06 10:55 50.86945 0.41283 9704 ft 281 kts 310°
2026-05-06 10:55 50.88144 0.38909 9018 ft 278 kts 310°
2026-05-06 10:55 50.89335 0.36546 8397 ft 271 kts 310°
2026-05-06 10:55 50.90497 0.34233 7747 ft 266 kts 310°
2026-05-06 10:56 50.91595 0.31907 7186 ft 263 kts 300°
2026-05-06 10:56 50.92194 0.29193 7023 ft 261 kts 288°
2026-05-06 10:56 50.92633 0.26400 6913 ft 262 kts 287°
2026-05-06 10:56 50.93044 0.23565 6987 ft 262 kts 283°
2026-05-06 10:57 50.93332 0.20744 7007 ft 263 kts 282°
2026-05-06 10:57 50.93596 0.17875 7007 ft 263 kts 281°
2026-05-06 10:57 50.93862 0.14966 7005 ft 263 kts 281°
2026-05-06 10:57 50.94124 0.12094 7000 ft 263 kts 281°
2026-05-06 10:58 50.94384 0.09222 6998 ft 263 kts 281°
2026-05-06 10:58 50.94641 0.06393 6992 ft 263 kts 281°
2026-05-06 10:58 50.94904 0.03521 6989 ft 263 kts 281°
2026-05-06 10:58 50.95164 0.00646 6985 ft 263 kts 281°
2026-05-06 10:59 50.95425 -0.02224 6967 ft 262 kts 281°
2026-05-06 10:59 50.95694 -0.05080 6972 ft 262 kts 281°
2026-05-06 10:59 50.95963 -0.07937 6978 ft 262 kts 281°
2026-05-06 10:59 50.96230 -0.10794 6937 ft 263 kts 281°
2026-05-06 11:00 50.96496 -0.13650 6781 ft 261 kts 281°
2026-05-06 11:00 50.96760 -0.16491 6573 ft 259 kts 281°
2026-05-06 11:00 50.97018 -0.19292 6366 ft 252 kts 281°
2026-05-06 11:00 50.97263 -0.22006 6112 ft 244 kts 281°
2026-05-06 11:01 50.97730 -0.24498 5902 ft 230 kts 301°
2026-05-06 11:01 50.98559 -0.26646 5691 ft 222 kts 306°
2026-05-06 11:01 50.99398 -0.28673 5473 ft 219 kts 306°
2026-05-06 11:01 51.00219 -0.30660 5236 ft 218 kts 306°
2026-05-06 11:02 51.01042 -0.32670 4980 ft 217 kts 306°
2026-05-06 11:02 51.01859 -0.34688 4731 ft 217 kts 306°
2026-05-06 11:02 51.02663 -0.36699 4456 ft 213 kts 306°
2026-05-06 11:02 51.03470 -0.38621 4250 ft 204 kts 315°
2026-05-06 11:03 51.04610 -0.39786 4046 ft 193 kts 341°
2026-05-06 11:03 51.05875 -0.40414 3809 ft 187 kts 345°
2026-05-06 11:03 51.07097 -0.40911 3565 ft 175 kts 353°
2026-05-06 11:03 51.08280 -0.41015 3270 ft 166 kts
2026-05-06 11:04 51.09401 -0.40867 2975 ft 159 kts
2026-05-06 11:04 51.10459 -0.40505 2778 ft 153 kts 17°
2026-05-06 11:04 51.11393 -0.39721 2640 ft 153 kts 37°
2026-05-06 11:04 51.12056 -0.38378 2488 ft 158 kts 61°
2026-05-06 11:05 51.12357 -0.36689 2296 ft 159 kts 73°
2026-05-06 11:05 51.12598 -0.34970 2077 ft 159 kts 72°
2026-05-06 11:05 51.12837 -0.33256 1866 ft 158 kts 72°
2026-05-06 11:05 51.13076 -0.31550 1654 ft 158 kts 73°
2026-05-06 11:06 51.13312 -0.29849 1428 ft 154 kts 73°
2026-05-06 11:06 51.13531 -0.28266 1233 ft 140 kts 71°
2026-05-06 11:06 51.13734 -0.26806 1038 ft 132 kts 72°
2026-05-06 11:06 51.13931 -0.25394 842 ft 131 kts 72°
2026-05-06 11:07 51.14130 -0.23963 665 ft 132 kts 72°
2026-05-06 11:07 51.14330 -0.22566 504 ft 129 kts 72°
2026-05-06 11:07 51.14523 -0.21176 316 ft 128 kts 74°
2026-05-06 11:07 51.14708 -0.19804 212 ft 123 kts 73°
2026-05-06 11:08 51.14867 -0.18657 202 ft 87 kts 77°
2026-05-06 11:08 51.14962 -0.18023 207 ft 36 kts 72°
2026-05-06 11:08 51.15074 -0.17767 211 ft 15 kts 38°
2026-05-06 11:08 51.15163 -0.17766 205 ft 12 kts 353°
2026-05-06 11:09 51.15243 -0.17790 204 ft 11 kts 322°
2026-05-06 11:09 51.15234 -0.17930 204 ft 14 kts 258°
2026-05-06 11:09 51.15215 -0.18072 210 ft 9 kts 258°
2026-05-06 11:09 51.15205 -0.18143 204 ft 6 kts 257°
2026-05-06 11:10 51.15214 -0.18199 204 ft 5 kts 314°
2026-05-06 11:10 51.15261 -0.18231 212 ft 10 kts 348°
2026-05-06 11:10 51.15327 -0.18253 213 ft 10 kts 348°
2026-05-06 11:10 51.15386 -0.18281 213 ft 7 kts 312°
2026-05-06 11:11 51.15384 -0.18346 214 ft 4 kts 256°
2026-05-06 11:11 51.15380 -0.18375 204 ft 2 kts 257°
2026-05-06 11:11 51.15378 -0.18390 212 ft 1 kts 257°
2026-05-06 11:11 51.15377 -0.18395 212 ft 0 kts 257°